DW2150 Weather Reports


time (UTC)temp
C
wind
direction
speed
KPH
gust
KPH
rain 1hr
cm
rain 24hr
cm
rain mn
cm
humidity
%
barometer
mb
20260509192052 32 70 0.0 0.0 0.00 0.00 0.00 71 1009.1
20260509191549 31 273 0.0 0.0 0.00 0.00 0.00 72 1009.1
20260509191046 31 273 0.0 0.0 0.00 0.00 0.00 71 1009.1
20260509190543 31 245 0.0 0.0 0.00 0.00 0.00 72 1009.1
20260509190040 31 261 0.0 0.0 0.00 0.00 0.00 72 1009.1
20260509185536 31 259 0.0 0.0 0.00 0.00 0.00 73 1009.1
20260509185033 31 237 0.0 0.0 0.00 0.00 0.00 74 1009.1
20260509184530 31 257 0.0 8.0 0.00 0.00 0.00 76 1009.1
20260509183955 30 306 0.0 8.0 0.00 0.00 0.00 74 1009.1
20260509183452 30 355 0.0 8.0 0.00 0.00 0.00 76 1009.5
20260509182918 30 242 0.0 8.0 0.00 0.00 0.00 78 1009.5
20260509182414 30 252 0.0 0.0 0.00 0.00 0.00 78 1009.8
20260509181911 30 279 0.0 0.0 0.00 0.00 0.00 79 1009.8
20260509181246 30 256 0.0 1.6 0.00 0.00 0.00 81 1009.8
20260509180743 29 288 0.0 1.6 0.00 0.00 0.00 83 1010.2
20260509180221 28 240 0.0 1.6 0.00 0.00 0.00 84 1010.2
20260509175718 28 249 1.6 1.6 0.00 0.00 0.00 85 1010.5
20260509175216 28 238 1.6 1.6 0.00 0.00 0.00 85 1010.5
20260509174713 27 266 0.0 0.0 0.00 0.00 0.00 88 1010.5
20260509174210 27 257 0.0 0.0 0.00 0.00 0.00 86 1010.5
20260509173707 28 257 0.0 1.6 0.00 0.00 0.00 86 1010.5
20260509173204 28 256 0.0 3.2 0.00 0.00 0.00 87 1010.8
20260509172701 28 251 0.0 3.2 0.00 0.00 0.00 87 1010.8
20260509172158 27 263 0.0 3.2 0.00 0.00 0.00 87 1010.8
20260509171655 27 252 1.6 3.2 0.00 0.00 0.00 88 1010.8
20260509171152 27 259 0.0 0.0 0.00 0.00 0.00 89 1010.8
20260509170649 27 260 0.0 0.0 0.00 0.00 0.00 89 1010.8
20260509170146 27 260 0.0 0.0 0.00 0.00 0.00 89 1010.8
20260509165548 27 260 0.0 0.0 0.00 0.00 0.00 90 1010.8
20260509165045 27 259 0.0 0.0 0.00 0.00 0.00 90 1010.8
20260509164542 27 260 0.0 0.0 0.00 0.00 0.00 90 1010.8
20260509164039 27 259 0.0 0.0 0.00 0.00 0.00 89 1010.8
20260509163536 27 259 0.0 0.0 0.00 0.00 0.00 88 1010.8
20260509163033 27 260 0.0 0.0 0.00 0.00 0.00 89 1010.8
20260509162530 27 259 0.0 0.0 0.00 0.00 0.00 89 1010.8
20260509161953 27 260 0.0 0.0 0.00 0.00 0.00 88 1010.8
20260509161417 27 259 0.0 0.0 0.00 0.00 0.00 90 1010.8
20260509160909 27 260 0.0 0.0 0.00 0.00 0.00 90 1010.5
20260509160404 27 260 0.0 0.0 0.00 0.00 0.00 92 1010.5
20260509155901 26 260 0.0 0.0 0.00 0.00 0.00 92 1010.8
20260509155358 26 259 0.0 0.0 0.00 0.00 0.00 93 1010.8
20260509154753 26 259 0.0 0.0 0.00 0.00 0.00 93 1010.5
20260509154218 26 255 0.0 0.0 0.00 0.00 0.00 93 1010.2
20260509153715 25 254 0.0 0.0 0.00 0.00 0.00 94 1010.2
20260509153211 25 254 0.0 0.0 0.00 0.00 0.00 94 1010.2
20260509152637 25 254 0.0 0.0 0.00 0.00 0.00 94 1010.5
20260509152134 25 254 0.0 0.0 0.00 0.00 0.00 94 1010.5
20260509151631 25 254 0.0 0.0 0.00 0.00 0.00 94 1010.5
20260509151127 25 254 0.0 0.0 0.00 0.00 0.00 94 1010.2
20260509150623 25 254 0.0 0.0 0.00 0.00 0.00 94 1010.2
20260509150120 25 254 0.0 0.0 0.00 0.00 0.00 94 1010.5
20260509145556 25 254 0.0 0.0 0.00 0.00 0.00 94 1010.5
20260509145053 25 254 0.0 0.0 0.00 0.00 0.00 94 1010.5
20260509144550 25 254 0.0 0.0 0.00 0.00 0.00 94 1010.5
20260509144016 25 254 0.0 0.0 0.00 0.00 0.00 94 1010.8
20260509143512 25 254 0.0 0.0 0.00 0.00 0.00 95 1010.8
20260509143010 25 254 0.0 0.0 0.00 0.00 0.00 95 1010.8
20260509142451 25 254 0.0 0.0 0.00 0.00 0.00 95 1010.8
20260509141916 25 254 0.0 0.0 0.00 0.00 0.00 95 1010.8
20260509141412 25 254 0.0 0.0 0.00 0.00 0.00 96 1010.8
20260509140909 25 254 0.0 0.0 0.00 0.00 0.00 96 1010.8
20260509140405 25 254 0.0 0.0 0.00 0.00 0.00 96 1010.8
20260509135830 25 247 0.0 0.0 0.00 0.00 0.00 96 1010.8
20260509135255 25 246 0.0 0.0 0.00 0.00 0.00 96 1010.5
20260509134751 24 252 0.0 0.0 0.00 0.00 0.00 96 1010.2
20260509134248 24 252 0.0 0.0 0.00 0.00 0.00 96 1010.2
20260509133744 24 252 0.0 1.6 0.00 0.00 0.00 96 1010.5
20260509133241 24 252 0.0 1.6 0.00 0.00 0.00 96 1010.8
20260509132738 24 256 0.0 1.6 0.00 0.00 0.00 96 1010.8
20260509132234 24 277 1.6 1.6 0.00 0.00 0.00 96 1010.8
20260509131731 24 257 0.0 0.0 0.00 0.00 0.00 96 1010.8
20260509131137 24 246 0.0 0.0 0.00 0.00 0.00 96 1010.8
20260509130547 24 247 0.0 0.0 0.00 0.00 0.00 96 1010.5
20260509130044 23 40 0.0 0.0 0.00 0.00 0.00 96 1010.5
20260509125510 23 40 0.0 0.0 0.00 0.00 0.00 96 1010.5
20260509124936 23 40 0.0 0.0 0.00 0.00 0.00 96 1010.5
20260509124432 23 40 0.0 0.0 0.00 0.00 0.00 96 1010.5
20260509123858 23 40 0.0 0.0 0.00 0.00 0.00 96 1010.8
20260509123354 23 40 0.0 0.0 0.00 0.00 0.00 96 1010.5
20260509122820 23 40 0.0 0.0 0.00 0.00 0.00 96 1010.5
20260509122315 23 40 0.0 0.0 0.00 0.00 0.00 96 1010.5
20260509121812 23 40 0.0 0.0 0.00 0.00 0.00 96 1010.5
20260509121309 23 40 0.0 0.0 0.00 0.00 0.00 95 1010.5
20260509120805 23 40 0.0 0.0 0.00 0.00 0.00 96 1010.5
20260509120159 23 40 0.0 0.0 0.00 0.00 0.00 96 1010.5
20260509115637 23 40 0.0 0.0 0.00 0.00 0.00 96 1010.5
20260509115134 23 40 0.0 0.0 0.00 0.00 0.00 96 1010.5
20260509114631 23 40 0.0 0.0 0.00 0.00 0.00 96 1010.5
20260509114128 23 40 0.0 0.0 0.00 0.00 0.00 96 1010.5
20260509113624 23 40 0.0 0.0 0.00 0.00 0.00 96 1010.5
20260509113121 23 40 0.0 0.0 0.00 0.00 0.00 96 1010.5
20260509112618 23 40 0.0 0.0 0.00 0.00 0.00 96 1010.5
20260509112004 23 40 0.0 0.0 0.00 0.00 0.00 96 1010.5
20260509111501 23 40 0.0 0.0 0.00 0.00 0.00 96 1010.5
20260509110957 23 40 0.0 0.0 0.00 0.00 0.00 96 1010.2
20260509110423 23 40 0.0 0.0 0.00 0.00 0.00 96 1010.2
20260509105919 23 40 0.0 0.0 0.00 0.00 0.00 96 1010.2
20260509105416 23 40 0.0 0.0 0.00 0.00 0.00 96 1009.8
20260509104914 23 40 0.0 0.0 0.00 0.00 0.00 96 1009.8
20260509104410 23 40 0.0 0.0 0.00 0.00 0.00 96 1009.8
20260509103907 23 40 0.0 0.0 0.00 0.00 0.00 96 1009.8
20260509103332 23 40 0.0 0.0 0.00 0.00 0.00 96 1009.8
20260509102828 23 40 0.0 0.0 0.00 0.00 0.00 96 1010.2
20260509102325 23 40 0.0 0.0 0.00 0.00 0.00 96 1010.2
20260509101822 23 40 0.0 0.0 0.00 0.00 0.00 96 1009.8
20260509101319 23 40 0.0 0.0 0.00 0.00 0.00 95 1009.8
20260509100816 23 40 0.0 0.0 0.00 0.00 0.00 95 1010.2
20260509100312 23 40 0.0 0.0 0.00 0.00 0.00 95 1010.2
20260509095809 23 40 0.0 0.0 0.00 0.00 0.00 95 1009.8
20260509095235 23 40 0.0 0.0 0.00 0.00 0.00 95 1009.8
20260509094732 23 40 0.0 0.0 0.00 0.00 0.00 95 1009.8
20260509094228 23 40 0.0 0.0 0.00 0.00 0.00 95 1009.8
20260509093654 23 40 0.0 0.0 0.00 0.00 0.00 95 1009.8
20260509093151 23 40 0.0 0.0 0.00 0.00 0.00 95 1009.8
20260509092648 23 40 0.0 0.0 0.00 0.00 0.00 95 1009.5
20260509092124 23 40 0.0 0.0 0.00 0.00 0.00 95 1009.5
20260509091620 23 40 0.0 0.0 0.00 0.00 0.00 96 1009.5
20260509091117 23 40 0.0 0.0 0.00 0.00 0.00 96 1009.5
20260509090512 23 40 0.0 0.0 0.00 0.00 0.00 96 1009.5
20260509085947 22 40 0.0 0.0 0.00 0.00 0.00 95 1009.5
20260509085443 22 40 0.0 0.0 0.00 0.00 0.00 95 1009.1
20260509084939 22 40 0.0 0.0 0.00 0.00 0.00 95 1009.5
20260509084437 22 40 0.0 0.0 0.00 0.00 0.00 95 1009.5
20260509083933 22 40 0.0 0.0 0.00 0.00 0.00 95 1009.5
20260509083430 22 40 0.0 0.0 0.00 0.00 0.00 95 1009.5
20260509082927 22 40 0.0 0.0 0.00 0.00 0.00 95 1009.5
20260509082321 22 40 0.0 0.0 0.00 0.00 0.00 95 1009.5
20260509081818 22 40 0.0 0.0 0.00 0.00 0.00 95 1009.8
20260509081315 22 40 0.0 0.0 0.00 0.00 0.00 95 1009.8
20260509080813 22 40 0.0 0.0 0.00 0.00 0.00 95 1009.8
20260509080207 22 40 0.0 0.0 0.00 0.00 0.00 95 1009.8
20260509075645 23 40 0.0 0.0 0.00 0.00 0.00 95 1009.8
20260509075141 23 40 0.0 0.0 0.00 0.00 0.00 95 1010.2
20260509074638 22 40 0.0 0.0 0.00 0.00 0.00 95 1010.2
20260509074135 22 40 0.0 0.0 0.00 0.00 0.00 95 1010.2
20260509073632 22 40 0.0 0.0 0.00 0.00 0.00 95 1010.2
20260509073129 23 40 0.0 0.0 0.00 0.00 0.00 95 1010.2
20260509072627 23 40 0.0 0.0 0.00 0.00 0.00 95 1010.2
20260509072123 23 40 0.0 0.0 0.00 0.00 0.00 95 1010.2
20260509071621 23 40 0.0 0.0 0.00 0.00 0.00 95 1010.2
20260509071028 23 40 0.0 0.0 0.00 0.00 0.00 95 1010.2
20260509070525 23 40 0.0 0.0 0.00 0.00 0.00 95 1010.2
20260509070003 23 40 0.0 0.0 0.00 0.00 0.00 95 1010.2
20260509065429 23 40 0.0 0.0 0.00 0.00 0.00 95 1010.2
20260509064926 23 40 0.0 0.0 0.00 0.00 0.00 95 1010.2
20260509064423 23 40 0.0 0.0 0.00 0.00 0.00 95 1009.8
20260509063849 23 40 0.0 0.0 0.00 0.00 0.00 95 1010.2
20260509063346 23 40 0.0 0.0 0.00 0.00 0.00 95 1010.2
20260509062843 23 40 0.0 0.0 0.00 0.00 0.00 95 1010.2
20260509062338 23 40 0.0 0.0 0.00 0.00 0.00 95 1010.5
20260509061835 23 40 0.0 0.0 0.00 0.00 0.00 95 1010.2
20260509061332 23 40 0.0 0.0 0.00 0.00 0.00 95 1010.2
20260509060829 23 40 0.0 0.0 0.00 0.00 0.00 95 1010.2
20260509060326 23 40 0.0 0.0 0.00 0.00 0.00 95 1010.2
20260509055823 23 40 0.0 0.0 0.00 0.00 0.00 95 1010.2
20260509055320 23 40 0.0 0.0 0.00 0.00 0.00 95 1010.2
20260509054817 23 40 0.0 0.0 0.00 0.00 0.00 95 1010.2
20260509054314 23 40 0.0 0.0 0.00 0.00 0.00 95 1010.2
20260509053740 23 40 0.0 0.0 0.00 0.00 0.00 95 1010.5
20260509053205 23 40 0.0 0.0 0.00 0.00 0.00 95 1010.5
20260509052702 23 40 0.0 0.0 0.00 0.00 0.00 95 1010.5
20260509052159 23 40 0.0 0.0 0.00 0.00 0.00 95 1010.5
20260509051656 23 40 0.0 0.0 0.00 0.00 0.00 94 1010.5
20260509051134 23 40 0.0 0.0 0.00 0.00 0.00 94 1010.5
20260509050632 23 40 0.0 0.0 0.00 0.00 0.00 94 1010.5
20260509050027 23 40 0.0 0.0 0.00 0.00 0.00 94 1010.8
20260509045350 23 40 0.0 0.0 0.00 0.00 0.00 94 1010.8
20260509044846 23 40 0.0 0.0 0.00 0.00 0.00 94 1010.8
20260509044344 23 40 0.0 0.0 0.00 0.00 0.00 94 1010.8
20260509043841 23 40 0.0 0.0 0.00 0.00 0.00 94 1010.8
20260509043338 23 40 0.0 0.0 0.00 0.00 0.00 94 1010.8
20260509042835 23 40 0.0 0.0 0.00 0.00 0.00 94 1010.8
20260509042332 23 40 0.0 0.0 0.00 0.00 0.00 94 1010.8
20260509041830 23 40 0.0 0.0 0.00 0.00 0.00 94 1010.5
20260509041327 23 40 0.0 0.0 0.00 0.00 0.00 94 1010.8
20260509040823 23 40 0.0 0.0 0.00 0.00 0.00 94 1010.8
20260509040320 23 40 0.0 0.0 0.00 0.00 0.00 94 1010.8
20260509035818 23 40 0.0 0.0 0.00 0.00 0.00 94 1010.5
20260509035315 23 40 0.0 0.0 0.00 0.00 0.00 94 1010.2
20260509034811 23 40 0.0 0.0 0.00 0.00 0.00 94 1010.5
20260509034308 23 40 0.0 0.0 0.00 0.00 0.00 94 1010.2
20260509033734 23 40 0.0 0.0 0.00 0.00 0.00 94 1010.2
20260509033231 23 40 0.0 0.0 0.00 0.00 0.00 94 1010.2
20260509032728 23 40 0.0 0.0 0.00 0.00 0.00 94 1010.2
20260509032225 23 40 0.0 0.0 0.00 0.00 0.00 94 1010.2
20260509031722 23 38 0.0 0.0 0.00 0.00 0.00 94 1010.2
20260509031219 23 36 0.0 0.0 0.00 0.00 0.00 94 1010.2
20260509030716 23 28 0.0 1.6 0.00 0.00 0.00 94 1010.2
20260509030213 23 28 0.0 6.4 0.00 0.00 0.00 94 1010.2
20260509025710 23 28 0.0 6.4 0.00 0.00 0.00 94 1010.2
20260509025207 23 28 0.0 6.4 0.00 0.00 0.00 94 1010.2
20260509024704 23 36 1.6 6.4 0.00 0.00 0.00 94 1009.8
20260509024201 23 95 1.6 1.6 0.00 0.00 0.00 94 1009.8
20260509023658 23 45 0.0 0.0 0.00 0.00 0.00 94 1009.8
20260509023155 23 355 0.0 3.2 0.00 0.00 0.00 94 1009.8
20260509022652 23 69 0.0 4.8 0.00 0.00 0.00 94 1010.2
20260509022117 23 69 0.0 4.8 0.00 0.00 0.00 94 1010.2
20260509021543 23 34 1.6 4.8 0.00 0.00 0.00 94 1009.8
20260509021039 23 23 1.6 6.4 0.00 0.00 0.00 94 1009.5
20260509020536 23 121 1.6 11.3 0.00 0.00 0.00 94 1009.5
20260509020032 23 53 1.6 11.3 0.00 0.00 0.00 94 1009.5
20260509015530 23 51 1.6 11.3 0.00 0.00 0.00 94 1009.5
20260509015027 23 34 1.6 11.3 0.00 0.00 0.00 94 1009.5
20260509014524 23 38 3.2 6.4 0.00 0.00 0.00 94 1009.1
20260509014021 23 58 3.2 6.4 0.00 0.00 0.00 94 1009.1
20260509013519 23 69 1.6 4.8 0.00 0.00 0.00 93 1009.5
20260509012945 23 41 3.2 4.8 0.00 0.00 0.00 93 1009.5
20260509012404 23 24 1.6 6.4 0.00 0.00 0.00 93 1009.5
20260509011901 23 24 1.6 8.0 0.00 0.00 0.00 93 1009.5
20260509011358 23 59 1.6 8.0 0.00 0.00 0.00 93 1009.8
20260509010856 23 59 0.0 8.0 0.00 0.00 0.00 93 1009.8
20260509010353 23 61 1.6 3.2 0.00 0.00 0.00 93 1009.5
20260509005850 23 79 1.6 3.2 0.00 0.00 0.00 93 1009.5
20260509005347 23 12 1.6 3.2 0.00 0.00 0.00 93 1009.5
20260509004845 23 19 1.6 4.8 0.00 0.00 0.00 93 1009.5
20260509004311 23 53 1.6 4.8 0.00 0.00 0.00 93 1009.8
20260509003737 23 61 1.6 16.1 0.00 0.00 0.00 93 1009.8
20260509003202 23 59 3.2 16.1 0.00 0.00 0.00 93 1009.8
20260509002659 23 25 1.6 16.1 0.00 0.00 0.00 93 1009.8
20260509002156 23 44 3.2 16.1 0.00 0.00 0.00 93 1009.1
20260509001653 23 59 1.6 9.7 0.00 0.00 0.00 93 1008.8
20260509001150 23 63 3.2 8.0 0.00 0.00 0.00 93 1008.8
20260509000616 23 45 1.6 9.7 0.00 0.00 0.00 92 1009.1
20260509000113 23 64 3.2 9.7 0.00 0.00 0.00 92 1009.5
20260508235549 23 34 1.6 6.4 0.00 0.00 0.00 92 1009.5
20260508235047 23 43 3.2 8.0 0.00 0.00 0.00 92 1009.8
20260508234512 23 38 0.0 8.0 0.00 0.00 0.00 92 1010.2
20260508233938 23 64 3.2 4.8 0.00 0.00 0.00 92 1010.2
20260508233435 23 12 1.6 4.8 0.00 0.00 0.00 92 1009.8
20260508232932 23 71 1.6 6.4 0.00 0.00 0.00 92 1009.5
20260508232429 23 63 3.2 6.4 0.00 0.00 0.00 92 1009.5
20260508231926 23 41 3.2 6.4 0.00 0.00 0.00 91 1009.5
20260508231423 23 45 3.2 12.9 0.00 0.00 0.00 91 1009.8
20260508230920 24 36 3.2 12.9 0.00 0.00 0.00 91 1009.8
20260508230417 24 37 3.2 12.9 0.00 0.00 0.00 91 1009.8
20260508225914 24 60 3.2 12.9 0.00 0.00 0.00 91 1009.5
20260508225411 24 48 3.2 9.7 0.00 0.00 0.00 91 1009.5
20260508224908 24 24 3.2 9.7 0.00 0.00 0.00 91 1009.5
20260508224405 24 35 3.2 9.7 0.00 0.00 0.00 91 1009.5
20260508223902 24 41 1.6 8.0 0.00 0.00 0.00 91 1009.5
20260508223359 24 39 3.2 8.0 0.00 0.00 0.00 91 1009.5
20260508222824 24 52 3.2 8.0 0.00 0.00 0.00 91 1009.5
20260508222320 24 26 3.2 9.7 0.00 0.00 0.00 91 1009.8
20260508221817 24 39 1.6 9.7 0.00 0.00 0.00 91 1009.8
20260508221314 23 52 3.2 9.7 0.00 0.00 0.00 91 1009.8
20260508220812 23 38 3.2 9.7 0.00 0.00 0.00 91 1009.8
20260508220308 23 24 1.6 6.4 0.00 0.00 0.00 91 1009.8
20260508215806 23 50 3.2 6.4 0.00 0.00 0.00 91 1009.8
20260508215306 23 46 1.6 6.4 0.00 0.00 0.00 91 1009.8
20260508214759 23 5 1.6 8.0 0.00 0.00 0.00 90 1010.2
20260508214154 23 354 1.6 8.0 0.00 0.00 0.00 90 1010.2
20260508213651 23 52 1.6 8.0 0.00 0.00 0.00 90 1009.8
20260508213117 23 52 1.6 8.0 0.00 0.00 0.00 91 1010.2
20260508212614 23 27 1.6 8.0 0.00 0.00 0.00 90 1010.2
20260508212040 23 355 3.2 6.4 0.00 0.00 0.00 91 1010.2
20260508211537 23 32 1.6 8.0 0.00 0.00 0.00 91 1009.8
20260508211034 23 64 3.2 8.0 0.00 0.00 0.00 90 1010.2
20260508210531 23 65 3.2 8.0 0.00 0.00 0.00 90 1010.2
20260508210028 23 64 3.2 8.0 0.00 0.00 0.00 90 1010.2
20260508205525 23 50 1.6 6.4 0.00 0.00 0.00 90 1010.2
20260508205023 23 22 0.0 8.0 0.00 0.00 0.00 90 1010.2
20260508204519 23 11 1.6 8.0 0.00 0.00 0.00 90 1010.2
20260508204016 23 32 3.2 8.0 0.00 0.00 0.00 90 1010.2
20260508203513 23 55 3.2 6.4 0.00 0.00 0.00 90 1010.2
20260508202952 23 50 1.6 8.0 0.00 0.00 0.00 90 1010.5
20260508202449 23 40 1.6 8.0 0.00 0.00 0.00 91 1010.5
20260508201946 23 23 0.0 8.0 0.00 0.00 0.00 90 1010.8
20260508201443 23 28 3.2 8.0 0.00 0.00 0.00 90 1010.5
20260508200940 23 71 3.2 8.0 0.00 0.00 0.00 91 1010.8
20260508200436 23 53 1.6 8.0 0.00 0.00 0.00 91 1010.8
20260508195933 23 43 3.2 8.0 0.00 0.00 0.00 91 1010.8
20260508195431 23 33 3.2 8.0 0.00 0.00 0.00 91 1010.8
20260508194927 23 53 1.6 8.0 0.00 0.00 0.00 92 1011.2
20260508194424 22 30 1.6 12.9 0.00 0.00 0.00 92 1011.2
20260508193921 22 49 3.2 12.9 0.00 0.00 0.00 92 1010.8
20260508193418 22 47 3.2 12.9 0.00 0.00 0.00 93 1010.8
20260508192915 22 47 3.2 11.3 0.00 0.00 0.00 93 1010.8